SCP
0 0 0 0 0 0 0 0 0 0 0 0 0 0 0 0 0 0 0 0 0 0 0 0 0 0 0 0 0 0 0 0 0 0 0 0 0 0 0 0 0 0 0
0 0 0 0 0 0 0 0 0 0 0 0 0 0 0 0 0 0 0 0 0 0 0 0 0 0 0 0 0 0 0 0 0 0 0 0 0 0 0 0 0 0 0
0 0 0 0 0 0 0 0 0 0 0 0 0 0 0 0 0 0 0 0 0 0 0 0 0 0 0 0 0 0 0 0 0 0 0 0 0 0 0 0 0 0 0
0 0 0 0 0 0 0 0 0 0 0 0 0 0 0 0 0 0 0 0 0 0 0 0 0 0 0 0 0 0 0 0 0 0 0 0 0 0 0 0 0 0 0
0 0 0 0 0 0 0 0 0 0 0 0 0 0 0 0 0 0 0 0 0 0 0 0 0 0 0 0 0 0 0 0 0 0 0 0 0 0 0 0 0 0 0
0 0 0 0 0 0 0 0 0 0 0 0 0 0 0 0 0 0 0 0 0 0 0 0 0 0 0 0 0 0 0 0 0 0 0 0 0 0 0 0 0 0 0
0 0 0 0 0 0 0 0 0 0 0 0 0 0 0 0 0 0 0 0 0 0 0 0 0 0 0 0 0 0 0 0 0 0 0 0 0 0 0 0 0 0 0
0 0 0 0 0 0 0 0 0 0 0 0 0 0 0 0 0 0 0 0 0 0 0 0 0 0 0 0 0 0 0 0 0 0 0 0 0 0 0 0 0 0 0
0 0 0 0 0 0 0 0 0 0 0 0 0 0 0 0 0 0 0 0 0 0 0 0 0 0 0 0 0 0 0 0 0 0 0 0 0 0 0 0 0 0 0
0 0 0 0 0 0 0 0 0 0 0 0 0 0 0 0 0 0 0 0 0 0 0 0 0 0 0 0 0 0 0 0 0 0 0 0 0 0 0 0 0 0 0
0 0 0 0 0 0 0 0 0 0 0 0 0 0 0 0 0 0 0 0 0 0 0 0 0 0 0 0 0 0 0 0 0 0 0 0 0 0 0 0 0 0 0
0 0 0 0 0 0 0 0 0 0 0 0 0 0 0 0 0 0 0 0 0 0 0 0 0 0 0 0 0 0 0 0 0 0 0 0 0 0 0 0 0 0 0
0 0 0 0 0 0 0 0 0 0 0 0 0 0 0 0 0 0 0 0 0 0 0 0 0 0 0 0 0 0 0 0 0 0 0 0 0 0 0 0 0 0 0
0 0 0 0 0 0 0 0 0 0 0 0 0 0 0 0 0 0 0 0 0 0 0 0 0 0 0 0 0 0 0 0 0 0 0 0 0 0 0 0 0 0 0
0 0 0 0 0 0 0 0 0 0 0 0 0 0 0 0 0 0 0 0 0 0 0 0 0 0 0 0 0 0 -0 0 0 0 0 0 0 0 0 0 0 0 0
0 0 0 0 0 0 0 0 0 0 0 0 0 0 0 0 0 0 0 0 0 0 0 0 0 0 0 0 0 0 0 0 0 0 0 0 0 0 0 0 0 0 0
0 0 0 0 0 0 0 0 0 0 0 0 0 0 0 0 0 0 0 0 0 0 0 0 0 0 0 0 0 0 0 0 0 0 0 0 0 0 0 0 0 0 0
0 0 0 0 0 0 0 0 0 0 0 0 0 0 0 0 0 0 0 0 0 0 0 0 0 0 0 0 0 0 0 0 0 0 0 0 0 0 0 0 0 0 0
0 0 0 0 0 0 0 0 0 0 0 0 0 0 0 0 0 0 0 0 0 0 0 0 0 0 0 0 0 0 0 0 0 0 0 0 0 0 0 0 0 0 0
0 0 0 0 0 0 0 0 0 0 0 0 0 0 0 0 0 0 0 0 0 0 0 0 0 0 0 0 0 0 0 0 0 0 0 0 0 0 0 0 0 0 0
0 0 0 0 0 0 0 0 0 0 0 0 0 0 0 0 0 0 0 0 0 0 0 0 0 0 0 0 0 0 0 0 0 0 0 0 0 0 0 0 0 0 0
0 0 0 0 0 0 0 0 0 0 0 0 0 0 0 0 0 0 0 0 0 0 0 0 0 0 0 0 0 0 0 0 0 0 0 0 0 0 0 0 0 0 0
0 0 0 0 0 0 0 0 0 0 0 0 0 0 0 0 0 0 0 0 0 0 0 0 0 0 0 0 0 0 0 0 0 0 0 0 0 0 0 0 0 0 0
0 0 0 0 0 0 0 0 0 0 0 0 0 0 0 0 0 0 0 0 0 0 0 0 0 0 0 0 0 0 0 0 0 0 0 0 0 0 0 0 0 0 0
0 0 0 0 0 0 0 0 0 0 0 0 0 0 0 0 0 0 0 0 0 0 0 0 0 0 0 0 0 0 0 0 0 0 0 0 0 0 0 0 0 0 0
0 0 0 0 0 0 0 0 0 0 0 0 0 0 0 0 0 0 0 0 0 0 0 0 0 0 0 0 0 0 0 0 0 0 0 0 0 0 0 0 0 0 0
Wind_Speed
1 1 1 2 2 2 2 3 3 3 4 5 5 5 5 4 4 3 3 3 3 3 2 1 2 2 1 1 2 2 3 3 4 3 2 2 3 3 3 3 4 4 5
2 1 0 1 2 2 3 3 3 4 4 4 4 5 5 5 4 4 4 4 3 3 2 2 2 2 1 1 1 2 3 3 4 4 2 2 4 4 3 4 4 4 4
2 1 0 1 1 1 2 3 3 3 4 4 4 4 4 4 4 4 3 4 3 3 2 2 2 1 2 2 2 2 2 3 3 3 3 2 2 2 2 3 4 3 4
3 2 1 1 1 1 2 2 2 3 3 3 3 3 4 4 4 4 4 4 4 4 3 2 2 2 2 2 2 2 2 2 2 2 3 2 2 2 2 3 3 3 3
4 3 3 2 2 1 1 2 2 3 3 3 3 4 4 3 3 3 4 4 4 4 4 4 3 3 3 2 1 1 1 2 2 2 2 2 2 2 3 3 3 3 2
5 4 4 3 2 1 1 1 2 3 3 3 3 3 4 3 6 6 4 3 3 3 4 4 4 3 5 5 4 2 2 2 3 3 2 3 4 3 3 3 3 3 2
5 4 4 3 2 2 2 1 2 3 2 3 3 3 3 5 7 6 6 3 3 3 3 3 3 3 4 3 4 4 3 3 4 3 4 4 4 4 4 4 4 4 3
4 4 4 4 3 3 2 2 3 2 2 3 3 3 3 5 7 6 5 3 3 3 3 3 3 4 4 3 3 3 3 3 3 2 3 4 4 4 5 5 4 3 1
4 4 5 5 4 3 3 4 3 2 3 3 3 4 4 6 7 6 4 2 2 4 4 3 3 3 5 5 3 3 4 4 3 3 3 4 4 5 5 3 3 3 2
5 5 5 5 5 5 5 4 3 3 3 4 4 4 4 5 7 6 3 0 2 3 3 4 5 5 6 5 2 2 4 4 3 3 3 2 1 2 4 4 5 4 2
5 4 4 4 5 5 4 3 3 3 3 4 4 5 4 5 6 6 3 1 1 2 2 3 4 8 7 6 4 2 4 4 2 2 2 2 1 0 1 2 3 3 3
4 4 4 4 4 3 4 4 3 3 3 4 4 5 4 4 5 5 5 4 3 2 3 3 4 8 8 8 5 5 6 4 1 1 1 1 1 1 1 1 2 2 2
2 3 4 4 4 3 4 4 3 2 3 3 3 4 4 3 4 6 6 5 4 2 3 6 7 9 8 6 6 7 5 2 1 1 2 2 2 2 1 1 1 1 1
1 2 3 3 4 3 3 3 3 3 3 3 3 4 4 3 3 3 3 3 3 3 3 5 7 7 5 6 6 4 2 2 2 2 2 2 1 1 1 1 1 1 1
0 1 2 2 3 3 3 3 4 4 4 4 4 4 4 5 6 6 4 3 3 3 2 2 3 3 4 4 4 4 3 2 2 2 2 2 2 2 2 1 1 2 2
2 2 2 2 2 2 3 4 4 4 6 5 5 4 4 7 8 6 7 6 4 2 0 2 3 3 4 4 5 4 4 3 3 3 3 3 3 3 3 2 2 3 3
3 2 2 2 2 2 2 2 4 5 7 8 9 9 7 7 6 4 3 3 2 0 1 3 4 4 5 5 4 4 4 4 3 3 4 4 4 4 3 3 3 3 4
4 5 4 3 3 3 3 3 3 3 5 6 7 12 13 10 8 6 3 2 3 2 2 3 5 5 5 5 5 5 5 5 4 4 4 4 4 4 4 4 4 5 5
4 3 3 3 4 4 4 4 4 5 5 5 6 8 12 10 11 12 8 5 4 4 4 4 4 5 5 5 5 5 5 4 4 4 4 5 4 4 5 5 5 7 6
4 8 7 4 4 5 5 5 5 5 5 6 7 7 7 8 8 8 8 6 6 6 6 6 6 6 6 6 6 5 5 5 5 4 4 4 4 4 6 7 6 6 6
4 5 9 6 4 4 4 5 4 5 5 5 5 8 10 6 6 7 6 6 6 6 6 6 6 7 7 7 6 7 7 6 6 6 5 5 5 5 5 5 6 6 6
3 4 4 4 4 4 4 4 4 4 5 5 4 5 9 6 5 5 5 5 5 5 5 5 5 6 6 7 7 7 7 7 8 7 7 7 6 6 6 6 6 6 6
4 4 4 4 3 5 5 4 4 4 4 4 4 4 4 4 4 4 4 4 4 4 4 5 5 5 5 5 5 5 7 7 8 9 8 7 7 7 6 7 7 7 8
3 3 3 3 3 3 3 3 3 3 3 3 3 3 3 3 3 4 4 3 3 4 4 4 4 6 8 6 4 4 5 6 7 7 10 9 9 7 7 7 8 9 8
3 3 2 2 2 2 2 2 2 3 3 3 3 3 3 3 3 3 3 4 4 4 5 5 4 5 7 9 8 7 9 11 10 9 8 8 10 9 8 9 8 9 9
2 2 2 2 2 1 1 1 1 2 2 2 2 2 2 3 3 3 4 4 5 5 5 5 6 8 9 7 9 11 13 13 13 14 10 8 9 9 9 8 10 10 10
Wind_Direction
220 244 11 335 339 353 351 339 342 348 354 4 5 10 12 10 6 13 358 358 353 334 335 329 299 282 256 234 219 217 219 208 234 254 230 214 204 201 194 200 201 198 203
207 190 338 345 3 7 349 340 349 355 358 5 13 18 16 12 10 12 2 359 355 342 330 332 313 308 287 270 244 236 230 220 220 241 238 214 214 206 193 193 202 201 199
189 171 112 357 3 350 332 337 350 356 358 6 14 14 9 5 6 4 360 351 347 332 320 312 299 308 294 278 267 248 238 236 219 223 238 221 215 196 183 195 201 201 201
184 180 196 236 248 282 313 334 339 346 354 354 355 354 353 356 358 355 355 353 350 345 339 324 303 298 278 274 270 261 246 238 229 229 231 223 214 199 178 191 200 201 204
181 192 213 223 228 270 323 325 328 342 345 339 344 344 343 344 345 349 347 351 353 352 349 342 321 317 309 299 271 255 245 237 232 229 229 220 212 193 199 188 195 192 204
185 203 213 214 225 254 281 301 324 335 335 337 335 334 337 335 341 348 350 347 344 348 341 335 331 340 347 346 330 294 249 231 229 225 227 227 230 212 196 188 181 178 210
194 207 208 208 218 241 259 288 305 309 314 316 315 324 320 315 326 338 347 353 345 337 336 335 337 348 352 340 340 344 321 290 249 227 227 232 230 214 193 194 192 186 198
197 209 211 208 219 232 246 267 278 281 285 289 294 303 305 309 321 331 341 356 348 342 341 336 329 326 332 342 344 343 333 321 299 263 237 245 240 220 202 196 187 172 156
202 213 216 210 215 225 241 255 259 264 277 276 279 287 291 300 311 318 334 348 345 339 336 341 342 334 335 354 358 338 325 320 308 296 274 265 255 228 193 162 163 166 192
212 215 215 210 211 222 235 245 246 244 261 279 286 281 272 280 292 302 313 347 332 326 329 334 342 342 339 348 345 330 322 315 318 322 327 331 307 235 201 190 184 181 172
212 208 213 217 220 227 236 241 247 257 278 290 291 289 280 273 284 286 274 209 251 299 313 317 318 332 336 334 330 302 295 304 309 315 323 335 345 326 232 202 189 183 185
206 212 229 235 236 230 230 250 252 255 275 288 296 299 289 281 273 276 267 242 221 241 279 289 299 317 325 326 323 312 316 327 325 329 323 318 307 284 256 218 203 205 212
203 236 254 263 261 251 237 249 258 250 251 270 275 282 289 286 278 274 270 259 247 236 263 281 299 313 320 320 315 318 326 330 318 303 283 279 272 260 249 237 223 223 252
195 260 278 287 293 288 263 246 243 249 250 260 262 264 274 283 275 267 265 265 267 271 287 301 310 315 312 299 305 314 310 280 266 262 261 266 281 283 254 222 216 221 243
28 326 316 306 302 306 297 262 245 241 229 234 248 244 249 270 265 233 213 225 227 245 286 318 326 327 325 319 313 302 294 294 278 263 252 255 254 251 249 228 208 200 214
59 12 348 332 326 323 318 320 302 288 312 301 287 279 262 259 276 259 238 236 238 248 300 305 304 303 299 300 301 302 292 275 262 253 250 243 242 241 245 235 216 212 225
64 28 8 7 4 358 359 358 347 352 12 18 8 359 341 321 311 288 264 257 281 323 316 297 296 296 295 294 289 284 282 277 265 250 246 243 239 240 238 237 229 224 230
54 44 44 29 21 20 19 19 23 22 15 6 4 11 11 11 14 13 16 45 10 15 320 303 302 301 298 296 294 288 284 286 277 263 252 246 236 233 236 237 231 227 228
52 45 43 39 36 35 34 37 40 41 37 22 14 13 14 22 37 38 44 43 17 1 350 333 323 318 314 310 306 302 296 290 284 275 267 258 246 235 238 237 235 234 228
49 58 65 55 45 43 43 46 44 44 41 36 30 19 14 32 38 33 34 30 25 12 4 358 354 349 342 335 330 325 320 317 314 303 289 279 265 249 246 242 235 232 229
55 55 61 59 52 50 50 48 47 48 46 43 35 28 34 42 38 33 31 26 20 14 7 4 4 360 357 353 349 347 347 345 341 334 325 313 297 277 261 252 245 237 233
69 64 60 61 56 55 54 49 51 53 50 49 35 32 38 44 40 35 29 21 13 7 1 1 2 0 358 360 360 0 358 353 347 338 328 321 313 302 287 268 256 248 239
77 74 69 63 63 62 58 49 49 49 45 41 38 32 30 31 27 24 17 8 0 357 357 359 355 354 354 355 358 2 358 348 338 330 325 318 312 307 301 289 276 261 249
81 83 81 73 67 63 60 51 46 45 42 37 34 30 22 15 9 6 2 354 349 345 346 344 340 341 342 340 338 342 340 334 333 329 323 314 308 303 301 297 289 278 267
86 89 91 88 80 73 66 58 50 44 37 32 27 18 7 3 358 353 347 342 341 337 335 332 326 329 329 329 329 327 324 323 323 323 319 312 307 303 297 294 293 290 279
95 101 106 106 97 85 77 67 50 35 22 10 1 351 344 342 339 336 336 335 334 330 328 323 321 321 318 318 319 319 317 316 315 315 312 306 304 301 302 295 290 287 282